[[{"header":{"parameterUnit":"m.s-1","parameterCategory":2,"la1":30.2991,"la2":30.254,"lo1":-89.0895,"lo2":-89.0444,"dy":0.0017,"dx":0.0017,"nx":28,"ny":28,"refTime":"2024-03-24T21:00:00:Z","depth":"0","parameterNumber":2,"parameterNumberName":"U-component_of_CURRENTS"},"data":[0,0,0,0,0,0,0,0,0,0,0,0,0,0,0,0,0,0,0,0,0,0,0,0,0,0,0,0,0,0,0,0,0,0,0,0,0,0,0,0,0,0,0,0,0,0,0,0,0,0,0,0,0,0,0,0,0,0,0.2324,0.2325,0,0.2383,0.2383,0.2384,0.2415,0.2416,0.2416,0.2417,0.2267,0.2263,0.2258,0,0,0,0,0,0,0,0,0,0,0,0,0,0.2209,0.2211,0.2324,0.2325,0.2327,0.2383,0.2383,0.2384,0.2415,0.2416,0.2416,0.2417,0.2269,0.2263,0.2258,0,0,0,0,0,0,0,0,0,0,0,0,0,0.2258,0.2211,0.2324,0.2353,0.2356,0.2383,0.2383,0.2384,0.2415,0.2416,0.2417,0.2417,0.227,0.2264,0.2257,0.2201,0,0,0.2237,0.2234,0,0,0,0,0,0,0,0,0.2255,0.2262,0.2347,0.2351,0.2355,0.2397,0.2288,0.2314,0.2415,0.2388,0.2417,0.2418,0.2293,0.2285,0.2291,0.2194,0.2188,0.2236,0.2232,0.2229,0.2228,0,0,0,0,0,0,0,0.2252,0.2259,0.2343,0.2348,0.2353,0.2352,0.236,0.2294,0.2328,0.239,0.2394,0.2407,0.2294,0.2297,0.2287,0.2186,0.2237,0.2231,0.2226,0.2224,0.2083,0.2083,0,0,0,0,0,0,0.2255,0.2256,0.2341,0.2345,0.2311,0.2354,0.2362,0.2379,0.2334,0.2331,0.2407,0.2409,0.2308,0.2295,0.2282,0.2245,0.2229,0.2223,0.2219,0.2082,0.2083,0.2083,0,0,0,0,0,0,0.2252,0.2262,0.2339,0.2305,0.2316,0.2356,0.2374,0.238,0.2384,0.235,0.2342,0.2406,0.2309,0.2291,0.2256,0.2238,0.222,0.2214,0.2082,0.2083,0.2083,0.215,0,0,0,0,0,0,0.2249,0.2261,0.2264,0.2306,0.2318,0.2352,0.2374,0.238,0.2394,0.2397,0.2345,0.2334,0.2308,0.2267,0.225,0.2228,0.2209,0.2082,0.2082,0.2083,0.2147,0.2152,0.2157,0,0,0,0,0,0.2244,0.2248,0.2263,0.2273,0.2324,0.2353,0.2357,0.2385,0.2393,0.2392,0.2384,0.2335,0.2257,0.2262,0.2242,0.2218,0.2082,0.2082,0.2083,0.2145,0.2151,0.2157,0,0,0,0,0,0,0.2185,0.2253,0.2271,0.2291,0.2319,0.236,0.2362,0.238,0.2374,0.2372,0.2339,0.2327,0.229,0.2245,0.2252,0.2181,0.2158,0.2155,0.2213,0.2218,0.2222,0.2214,0.2203,0,0,0,0,0,0.2177,0.2205,0.2257,0.2269,0.2284,0.2319,0.2331,0.2353,0.2362,0.2362,0.2336,0.2303,0.2275,0.2243,0.2208,0.2157,0.2139,0.2128,0.2133,0.2137,0.2119,0.2109,0.2112,0.2085,0.2085,0.2085,0,0,0.2156,0.2197,0.2211,0.2259,0.2282,0.2301,0.2327,0.2346,0.2355,0.2338,0.2327,0.2313,0.2269,0.224,0.2215,0.2198,0.2143,0.2138,0.2142,0.212,0.211,0.2113,0.2115,0.2085,0.2085,0.2085,0,0,0.2137,0.2164,0.2187,0.2212,0.2256,0.2277,0.2282,0.2321,0.2331,0.2326,0.2329,0.2318,0.2254,0.2243,0.2223,0.222,0.2177,0.2197,0.2199,0.2191,0.2194,0.2195,0.2211,0.2213,0.219,0.219,0.219,0,0.2105,0.215,0.219,0.2215,0.2234,0.2266,0.2282,0.2292,0.2315,0.2318,0.2323,0.2288,0.2256,0.2232,0.2248,0.2227,0.2226,0.2185,0.2199,0.22,0.22,0.2215,0.2217,0.2193,0.2193,0.2193,0.2192,0,0.2116,0.2143,0.2151,0.2201,0.2216,0.2233,0.2264,0.227,0.2283,0.23,0.2291,0.2282,0.2261,0.2254,0.2247,0.2232,0.2234,0.2218,0.2188,0.2207,0.2222,0.2222,0.2198,0.2197,0.2196,0.2195,0,0,0.2068,0.2147,0.2148,0.2173,0.2214,0.2229,0.2235,0.2258,0.2264,0.2273,0.228,0.2262,0.2269,0.2247,0.2243,0.2236,0.2261,0.2228,0.2226,0.225,0.2264,0.2343,0.2352,0.2252,0.2252,0.2252,0.2287,0,0.2064,0.2115,0.215,0.2173,0.2201,0.2223,0.2228,0.2244,0.2256,0.2265,0.2263,0.2263,0.2262,0.2263,0.2258,0.2258,0.2259,0.2254,0.2234,0.2234,0.2307,0.2353,0.245,0.2495,0.2287,0.2287,0.2287,0,0.2067,0.2107,0.2142,0.2186,0.2196,0.2203,0.2221,0.223,0.2243,0.2253,0.2255,0.226,0.226,0.2256,0.2258,0.2257,0.2259,0.226,0.2261,0.2302,0.2313,0.2434,0.2503,0.2455,0.2287,0.2287,0.2287,0,0.2042,0.2095,0.2125,0.214,0.219,0.2195,0.2209,0.2225,0.2235,0.2247,0.2257,0.2258,0.2264,0.226,0.2279,0.2265,0.2289,0.2267,0.2339,0.2346,0.2405,0.2417,0.2426,0.2258,0.2258,0.2258,0.2258,0,0.2037,0.2057,0.2116,0.2134,0.2153,0.2184,0.2194,0.2209,0.2226,0.2239,0.225,0.2263,0.2263,0.2284,0.2286,0.2337,0.2297,0.2348,0.236,0.2436,0.245,0.2389,0.2301,0.2259,0.2259,0.2259,0.2258,0,0.2012,0.2052,0.209,0.214,0.2149,0.2161,0.219,0.2199,0.2218,0.2235,0.2241,0.2268,0.2308,0.2328,0.2338,0.2362,0.2343,0.2409,0.2518,0.2542,0.2568,0.2479,0.2304,0.223,0.2494,0.2496,0.2498,0,0.201,0.2032,0.2088,0.2105,0.2128,0.2149,0.2163,0.219,0.2205,0.2242,0.2252,0.2298,0.2346,0.2422,0.2486,0.2541,0.2402,0.2646,0.2628,0.2595,0.2502,0.2304,0.2237,0.2742,0.2746,0.2749,0.2752,0,0.2004,0.2023,0.2057,0.21,0.212,0.2137,0.2163,0.2173,0.2206,0.2231,0.2279,0.2323,0.2441,0.256,0.2656,0.2699,0.2557,0.271,0.2637,0.2669,0.2485,0.2414,0.2697,0.2778,0.2776,0.2774,0.2772,0.2771,0.1991,0.2013,0.206,0.2094,0.2115,0.2128,0.2129,0.2165,0.2191,0.2231,0.2292,0.2381,0.2604,0.2769,0.2791,0.2921,0.27,0.2914,0.2804,0.26,0.2534,0.2892,0.3007,0.3005,0.3004,0.3003,0.3002,0,0.1981,0.2015,0.2051,0.2085,0.2094,0.2111,0.2128,0.2122,0.2149,0.2241,0.2301,0.2556,0.275,0.2903,0.3132,0.3068,0.2882,0.2961,0.2711,0.2635,0.2975,0.3,0.3165,0.3165,0.3165,0.3165,0.3165,0.3165,0.1977,0.2015,0.2043,0.2061,0.2072,0.2054,0.2054,0.2058,0.2114,0.222,0.2358,0.2478,0.2752,0.3018,0.311,0.3072,0.2776,0.268,0.2485,0.2782,0.2768,0.2755,0.2763,0.2875,0.2874,0.2166,0.216,0.2156]},{"header":{"parameterUnit":"m.s-1","parameterCategory":2,"la1":30.2991,"la2":30.254,"lo1":-89.0895,"lo2":-89.0444,"dy":0.0017,"dx":0.0017,"nx":28,"ny":28,"refTime":"2024-03-24T21:00:00:Z","depth":"0","parameterNumber":3,"parameterNumberName":"V-component_of_CURRENTS"},"data":[0,0,0,0,0,0,0,0,0,0,0,0,0,0,0,0,0,0,0,0,0,0,0,0,0,0,0,0,0,0,0,0,0,0,0,0,0,0,0,0,0,0,0,0,0,0,0,0,0,0,0,0,0,0,0,0,0,0,-0.142,-0.1421,0,-0.1466,-0.1466,-0.1467,-0.1488,-0.1488,-0.1488,-0.1488,-0.1373,-0.137,-0.1367,0,0,0,0,0,0,0,0,0,0,0,0,0,-0.1331,-0.1333,-0.142,-0.1421,-0.1422,-0.1466,-0.1466,-0.1467,-0.1488,-0.1488,-0.1488,-0.1488,-0.1374,-0.1371,-0.1367,0,0,0,0,0,0,0,0,0,0,0,0,0,-0.137,-0.1333,-0.142,-0.144,-0.1442,-0.1466,-0.1466,-0.1467,-0.1488,-0.1488,-0.1488,-0.1489,-0.1376,-0.1371,-0.1366,-0.1329,0,0,-0.1351,-0.1349,0,0,0,0,0,0,0,0,-0.1368,-0.1373,-0.1436,-0.1438,-0.1441,-0.1474,-0.1393,-0.1414,-0.1488,-0.1467,-0.1488,-0.1489,-0.1394,-0.1387,-0.1394,-0.1324,-0.1319,-0.1351,-0.1348,-0.1346,-0.1344,0,0,0,0,0,0,0,-0.1365,-0.1371,-0.1435,-0.1437,-0.144,-0.144,-0.1446,-0.1398,-0.1423,-0.1469,-0.1471,-0.1481,-0.1394,-0.1398,-0.139,-0.1317,-0.1351,-0.1346,-0.1343,-0.1342,-0.1222,-0.1222,0,0,0,0,0,0,-0.1366,-0.1369,-0.1434,-0.1437,-0.1408,-0.1441,-0.1448,-0.1461,-0.1427,-0.1424,-0.1481,-0.1482,-0.1407,-0.1396,-0.1386,-0.1349,-0.1346,-0.1341,-0.1338,-0.1223,-0.1222,-0.1222,0,0,0,0,0,0,-0.1364,-0.1372,-0.1432,-0.1406,-0.1414,-0.1443,-0.1457,-0.1462,-0.1466,-0.1438,-0.1432,-0.1481,-0.1406,-0.1393,-0.1362,-0.1344,-0.1339,-0.1334,-0.1223,-0.1222,-0.1222,-0.1267,0,0,0,0,0,0,-0.1361,-0.1371,-0.1374,-0.1406,-0.1416,-0.144,-0.1457,-0.1462,-0.1473,-0.1475,-0.1435,-0.1426,-0.1406,-0.137,-0.1357,-0.1337,-0.1331,-0.1223,-0.1223,-0.1222,-0.1266,-0.1269,-0.1271,0,0,0,0,0,-0.1358,-0.1361,-0.1374,-0.1382,-0.1422,-0.144,-0.1444,-0.1464,-0.1472,-0.1469,-0.1461,-0.1427,-0.1357,-0.1366,-0.1351,-0.1329,-0.1223,-0.1223,-0.1222,-0.1265,-0.1268,-0.1271,0,0,0,0,0,0,-0.1319,-0.1365,-0.138,-0.1395,-0.1415,-0.1445,-0.1444,-0.146,-0.1454,-0.145,-0.1428,-0.1417,-0.1384,-0.1349,-0.136,-0.1294,-0.1282,-0.1278,-0.1319,-0.1322,-0.1324,-0.131,-0.1326,0,0,0,0,0,-0.1314,-0.1329,-0.1368,-0.1376,-0.1387,-0.1415,-0.1423,-0.1437,-0.1442,-0.1441,-0.1423,-0.1394,-0.1369,-0.1343,-0.1314,-0.1271,-0.1249,-0.1245,-0.1248,-0.125,-0.1229,-0.1212,-0.1211,-0.122,-0.122,-0.122,0,0,-0.13,-0.1326,-0.1334,-0.1369,-0.1384,-0.1391,-0.1419,-0.1429,-0.1428,-0.1423,-0.1406,-0.14,-0.1363,-0.1334,-0.1312,-0.13,-0.1239,-0.1249,-0.1252,-0.1228,-0.1211,-0.121,-0.1209,-0.122,-0.122,-0.122,0,0,-0.1275,-0.1302,-0.1307,-0.1322,-0.135,-0.1367,-0.1369,-0.1398,-0.1404,-0.1395,-0.1399,-0.139,-0.1339,-0.1325,-0.1307,-0.1295,-0.1259,-0.1279,-0.1266,-0.1252,-0.1251,-0.125,-0.1238,-0.1235,-0.1272,-0.1272,-0.1272,0,-0.1251,-0.1271,-0.1306,-0.1311,-0.1318,-0.1354,-0.135,-0.1361,-0.1375,-0.1372,-0.1386,-0.1354,-0.1332,-0.13,-0.1309,-0.1297,-0.1286,-0.1265,-0.1256,-0.1254,-0.1252,-0.124,-0.1236,-0.1274,-0.1274,-0.1273,-0.1273,0,-0.1237,-0.1246,-0.1245,-0.1267,-0.1275,-0.1276,-0.1302,-0.1305,-0.132,-0.1334,-0.1321,-0.1323,-0.1298,-0.13,-0.13,-0.1274,-0.1272,-0.1272,-0.1253,-0.1254,-0.1241,-0.1237,-0.1277,-0.1276,-0.1276,-0.1275,0,0,-0.1188,-0.1228,-0.1223,-0.1225,-0.1251,-0.1253,-0.125,-0.1257,-0.1246,-0.127,-0.1255,-0.1255,-0.1271,-0.1251,-0.126,-0.1253,-0.1252,-0.1257,-0.1255,-0.1252,-0.1222,-0.1191,-0.1183,-0.1259,-0.1258,-0.1257,-0.1226,0,-0.1159,-0.116,-0.1186,-0.117,-0.1173,-0.1198,-0.1188,-0.1195,-0.1207,-0.1201,-0.122,-0.1207,-0.1246,-0.1241,-0.1246,-0.1246,-0.1239,-0.126,-0.1214,-0.1212,-0.1189,-0.1176,-0.1101,-0.1064,-0.1221,-0.1221,-0.122,0,-0.113,-0.1138,-0.1125,-0.1129,-0.1129,-0.1121,-0.111,-0.1107,-0.1112,-0.1119,-0.1128,-0.1147,-0.1148,-0.1181,-0.1184,-0.1198,-0.1205,-0.1213,-0.1212,-0.1155,-0.1171,-0.1083,-0.1049,-0.1121,-0.1213,-0.1213,-0.1214,0,-0.1079,-0.1086,-0.1072,-0.1075,-0.1088,-0.1076,-0.1076,-0.1078,-0.1065,-0.1066,-0.1053,-0.1076,-0.1068,-0.1094,-0.1128,-0.1151,-0.1124,-0.1155,-0.1133,-0.1131,-0.1039,-0.103,-0.1067,-0.114,-0.114,-0.114,-0.114,0,-0.1037,-0.1021,-0.1048,-0.1039,-0.1009,-0.1032,-0.0996,-0.1,-0.0993,-0.0959,-0.1007,-0.0978,-0.1045,-0.105,-0.1094,-0.1093,-0.1096,-0.1113,-0.1112,-0.1054,-0.1048,-0.1082,-0.1169,-0.1139,-0.1139,-0.1139,-0.1139,0,-0.0975,-0.0996,-0.0982,-0.0991,-0.0987,-0.0963,-0.0949,-0.0924,-0.0926,-0.0881,-0.0876,-0.0893,-0.0894,-0.0958,-0.0982,-0.1025,-0.1071,-0.1038,-0.0969,-0.096,-0.1015,-0.1108,-0.1121,-0.1168,-0.1008,-0.1007,-0.1006,0,-0.0941,-0.0933,-0.0936,-0.0921,-0.0922,-0.0899,-0.0876,-0.0883,-0.0855,-0.0817,-0.0783,-0.0778,-0.0739,-0.0776,-0.085,-0.0902,-0.101,-0.0884,-0.0913,-0.099,-0.1093,-0.115,-0.1195,-0.0818,-0.0816,-0.0814,-0.0813,0,-0.0875,-0.0881,-0.0871,-0.0851,-0.0829,-0.08,-0.0772,-0.0738,-0.0726,-0.067,-0.0589,-0.055,-0.0585,-0.0575,-0.0668,-0.0733,-0.0936,-0.0845,-0.0934,-0.0947,-0.1,-0.1053,-0.0884,-0.0795,-0.0797,-0.0798,-0.0799,-0.08,-0.0811,-0.0797,-0.0793,-0.0765,-0.0741,-0.0692,-0.0631,-0.0586,-0.0502,-0.0356,-0.0391,-0.0212,-0.0277,-0.0378,-0.0552,-0.074,-0.0814,-0.0771,-0.0877,-0.0925,-0.097,-0.0766,-0.0676,-0.0677,-0.0678,-0.0679,-0.068,0,-0.0724,-0.0726,-0.0705,-0.0668,-0.0615,-0.0627,-0.0547,-0.0446,-0.0297,-0.0123,-0.0005,0.0208,0.0063,-0.0139,-0.0415,-0.067,-0.0817,-0.0828,-0.0896,-0.0943,-0.0741,-0.0731,-0.0638,-0.0637,-0.0637,-0.0637,-0.0637,-0.0637,-0.0674,-0.0645,-0.0649,-0.0554,-0.052,-0.0403,-0.0335,-0.0173,-0.0006,0.0364,0.0632,0.0781,0.0775,0.0014,-0.0522,-0.0737,-0.0963,-0.1009,-0.1159,-0.1027,-0.103,-0.1033,-0.1041,-0.1014,-0.1015,-0.1275,-0.1278,-0.1281]}],[{"header":{"parameterUnit":"m.s-1","parameterCategory":2,"la1":30.2991,"la2":30.254,"lo1":-89.0895,"lo2":-89.0444,"dy":0.0017,"dx":0.0017,"nx":28,"ny":28,"refTime":"2024-03-24T21:00:00:Z","depth":"2","parameterNumber":2,"parameterNumberName":"U-component_of_CURRENTS"},"data":[0,0,0,0,0,0,0,0,0,0,0,0,0,0,0,0,0,0,0,0,0,0,0,0,0,0,0,0,0,0,0,0,0,0,0,0,0,0,0,0,0,0,0,0,0,0,0,0,0,0,0,0,0,0,0,0,0,0,0.1008,0.1008,0,0.1019,0.1019,0.1019,0.0968,0.0966,0.0965,0.0964,0.0898,0.0897,0.0896,0,0,0,0,0,0,0,0,0,0,0,0,0,0.0937,0.0938,0.1008,0.1008,0.1009,0.1019,0.1019,0.1019,0.0968,0.0966,0.0965,0.0964,0.0898,0.0897,0.0896,0,0,0,0,0,0,0,0,0,0,0,0,0,0.0956,0.0938,0.1008,0.0987,0.0986,0.1019,0.1019,0.1019,0.0968,0.0966,0.0965,0.0963,0.0898,0.0897,0.0896,0.0923,0,0,0.0893,0.0892,0,0,0,0,0,0,0,0,0.0955,0.0958,0.099,0.0989,0.0987,0.0994,0.097,0.0984,0.0969,0.0971,0.0964,0.0962,0.0926,0.0923,0.0924,0.092,0.0917,0.0893,0.0892,0.0892,0.0891,0,0,0,0,0,0,0,0.0954,0.0957,0.1008,0.0991,0.0989,0.0977,0.0977,0.0972,0.0953,0.097,0.0968,0.0976,0.0924,0.0926,0.0922,0.0916,0.0893,0.0892,0.0891,0.0891,0.0886,0.0887,0,0,0,0,0,0,0.0963,0.0956,0.1008,0.1009,0.0971,0.098,0.098,0.099,0.0955,0.095,0.0977,0.0974,0.0928,0.0924,0.092,0.0918,0.0892,0.0891,0.089,0.0886,0.0886,0.0887,0,0,0,0,0,0,0.0961,0.0967,0.1007,0.0986,0.099,0.0983,0.0995,0.0991,0.0977,0.0962,0.0954,0.0965,0.0927,0.0921,0.0903,0.0916,0.089,0.0889,0.0885,0.0886,0.0887,0.0934,0,0,0,0,0,0,0.0959,0.0967,0.0975,0.0987,0.0992,0.1026,0.0997,0.0993,0.0988,0.0983,0.095,0.0943,0.0925,0.0905,0.0902,0.0914,0.0888,0.0884,0.0885,0.0886,0.0932,0.0937,0.0941,0,0,0,0,0,0.0957,0.0979,0.0975,0.0981,0.1004,0.1027,0.1028,0.1014,0.0989,0.0992,0.0962,0.0943,0.0909,0.0904,0.0901,0.0913,0.0884,0.0885,0.0886,0.093,0.0936,0.0941,0,0,0,0,0,0,0.0954,0.0977,0.0972,0.1,0.1011,0.1019,0.1027,0.1013,0.0993,0.098,0.0949,0.0942,0.0927,0.0916,0.0912,0.0914,0.0894,0.0894,0.0929,0.0934,0.0938,0.0938,0.0887,0,0,0,0,0,0.096,0.0978,0.0996,0.1017,0.1026,0.1023,0.1028,0.1019,0.1009,0.0997,0.0973,0.095,0.0936,0.0929,0.0913,0.092,0.092,0.0926,0.093,0.0934,0.0931,0.0943,0.0948,0.0891,0.0891,0.0891,0,0,0.0964,0.0981,0.0989,0.1017,0.1024,0.1043,0.102,0.1032,0.1036,0.0995,0.0983,0.0959,0.0938,0.0938,0.0933,0.0928,0.0955,0.0935,0.0939,0.0934,0.0944,0.095,0.0955,0.0891,0.0891,0.0891,0,0,0.0989,0.0998,0.1022,0.1035,0.1054,0.1055,0.1056,0.1059,0.1046,0.104,0.1009,0.099,0.0972,0.0963,0.0955,0.0976,0.097,0.0973,0.1003,0.1015,0.102,0.1024,0.1053,0.106,0.0984,0.0984,0.0984,0,0.0989,0.1025,0.1031,0.1059,0.1073,0.106,0.1083,0.1079,0.1069,0.1067,0.1037,0.1009,0.0984,0.0993,0.0992,0.0985,0.0997,0.0987,0.1021,0.1025,0.1029,0.1057,0.1064,0.0986,0.0986,0.0986,0.0986,0,0.1035,0.1059,0.1076,0.1103,0.1117,0.1137,0.1138,0.1138,0.1113,0.1106,0.1094,0.106,0.1045,0.1039,0.1016,0.1036,0.1039,0.102,0.101,0.1038,0.1066,0.1072,0.099,0.0989,0.0988,0.0988,0,0,0.1048,0.1097,0.1101,0.1118,0.114,0.1155,0.1169,0.1183,0.1192,0.1164,0.1173,0.1136,0.1112,0.1101,0.1079,0.1083,0.1116,0.1064,0.1064,0.1098,0.1162,0.1277,0.1294,0.1107,0.1108,0.1108,0.1181,0,0.1078,0.1133,0.1148,0.1187,0.1214,0.1213,0.1231,0.1236,0.1226,0.1232,0.1199,0.1189,0.1141,0.1133,0.113,0.1112,0.113,0.1099,0.1126,0.1127,0.1229,0.1304,0.1155,0.1217,0.1186,0.1187,0.1188,0,0.1119,0.115,0.1196,0.1233,0.1244,0.126,0.1285,0.1298,0.1306,0.1298,0.1287,0.126,0.1252,0.1204,0.1202,0.1187,0.1178,0.1166,0.1169,0.126,0.1254,0.1179,0.1228,0.1197,0.1197,0.1196,0.1195,0,0.1127,0.1181,0.1214,0.1229,0.127,0.1283,0.1296,0.1315,0.1326,0.1338,0.1345,0.1333,0.1321,0.1305,0.1276,0.1241,0.1289,0.124,0.1342,0.135,0.122,0.1218,0.1253,0.1253,0.1253,0.1252,0.1252,0,0.1153,0.1177,0.1219,0.1237,0.1277,0.1295,0.1326,0.1343,0.1364,0.1384,0.1371,0.1387,0.1342,0.1358,0.1324,0.1378,0.1334,0.1373,0.1386,0.1239,0.1237,0.1203,0.1197,0.1255,0.1254,0.1254,0.1253,0,0.1146,0.118,0.122,0.1266,0.1282,0.1303,0.1337,0.1351,0.1381,0.1409,0.1413,0.1433,0.1471,0.1461,0.1456,0.1461,0.1483,0.151,0.1364,0.1362,0.1519,0.1514,0.1634,0.1639,0.1643,0.1647,0.165,0,0.1143,0.1165,0.1227,0.1242,0.1257,0.129,0.1307,0.135,0.1365,0.1437,0.1447,0.1512,0.1567,0.1649,0.1655,0.169,0.1617,0.158,0.1495,0.1563,0.1563,0.1551,0.154,0.1327,0.1327,0.1327,0.1327,0,0.1124,0.1146,0.117,0.121,0.1233,0.1262,0.1291,0.1315,0.1367,0.1416,0.1488,0.1555,0.1679,0.1669,0.1758,0.1739,0.1568,0.1592,0.1676,0.1293,0.129,0.1286,0.1281,0.1328,0.1328,0.1328,0.1328,0.1328,0.1092,0.1099,0.1127,0.1156,0.1184,0.1199,0.1197,0.1252,0.13,0.1366,0.1486,0.1514,0.1582,0.1642,0.1668,0.1647,0.1728,0.1589,0.158,0.1572,0.1564,0.1573,0.1661,0.1662,0.1664,0.1665,0.1667,0,0.1042,0.1046,0.1064,0.1089,0.1076,0.1127,0.1151,0.1149,0.1191,0.1291,0.1392,0.129,0.1394,0.141,0.1415,0.1532,0.1429,0.1451,0.1236,0.124,0.1242,0.1206,0.1213,0.1212,0.1211,0.121,0,0,0.1014,0.1001,0.1008,0.0969,0.0978,0.0956,0.0955,0.0995,0.1028,0.1031,0.1011,0.1258,0.1306,0.1172,0.1264,0.1208,0.1191,0.1181,0.154,0.1283,0.1282,0.1329,0.1283,0,0,0,0,0]},{"header":{"parameterUnit":"m.s-1","parameterCategory":2,"la1":30.2991,"la2":30.254,"lo1":-89.0895,"lo2":-89.0444,"dy":0.0017,"dx":0.0017,"nx":28,"ny":28,"refTime":"2024-03-24T21:00:00:Z","depth":"2","parameterNumber":3,"parameterNumberName":"V-component_of_CURRENTS"},"data":[0,0,0,0,0,0,0,0,0,0,0,0,0,0,0,0,0,0,0,0,0,0,0,0,0,0,0,0,0,0,0,0,0,0,0,0,0,0,0,0,0,0,0,0,0,0,0,0,0,0,0,0,0,0,0,0,0,0,0.0076,0.0075,0,-0.011,-0.0112,-0.0115,-0.0278,-0.0279,-0.0281,-0.0283,-0.0561,-0.0566,-0.0572,0,0,0,0,0,0,0,0,0,0,0,0,0,0.0229,0.0228,0.0077,0.0074,0.0072,-0.011,-0.0112,-0.0115,-0.0277,-0.028,-0.0282,-0.0284,-0.0559,-0.0566,-0.0573,0,0,0,0,0,0,0,0,0,0,0,0,0,0.0114,0.0227,0.0077,-0.0029,-0.0041,-0.0109,-0.0113,-0.0116,-0.0277,-0.028,-0.0282,-0.0284,-0.0557,-0.0565,-0.0574,-0.0576,0,0,-0.06,-0.0604,0,0,0,0,0,0,0,0,0.0121,0.0108,-0.0012,-0.0022,-0.0035,-0.0172,-0.0161,-0.0274,-0.0276,-0.0189,-0.0283,-0.0286,-0.0436,-0.0455,-0.0486,-0.0589,-0.0601,-0.0601,-0.0606,-0.061,-0.0613,0,0,0,0,0,0,0,0.0129,0.0115,0.0001,-0.0014,-0.0028,-0.0089,-0.0108,-0.0183,-0.0299,-0.0197,-0.0209,-0.0226,-0.0444,-0.0477,-0.0493,-0.0605,-0.0601,-0.0609,-0.0614,-0.0617,-0.082,-0.082,0,0,0,0,0,0,0.0161,0.0123,0.0007,-0.0005,0.004,-0.0089,-0.0111,-0.0127,-0.0297,-0.0324,-0.0223,-0.0233,-0.046,-0.0483,-0.0504,-0.0593,-0.061,-0.0618,-0.0623,-0.082,-0.082,-0.082,0,0,0,0,0,0,0.0166,0.0153,0.0014,0.0056,0.0034,-0.0089,-0.0106,-0.0129,-0.019,-0.0315,-0.0345,-0.0263,-0.0463,-0.0492,-0.0584,-0.0602,-0.0622,-0.063,-0.082,-0.082,-0.082,-0.0723,0,0,0,0,0,0,0.0171,0.0156,0.0146,0.0059,0.0033,-0.0033,-0.0104,-0.0131,-0.0194,-0.0209,-0.0359,-0.0386,-0.0468,-0.057,-0.0593,-0.0615,-0.0637,-0.082,-0.082,-0.082,-0.0726,-0.072,-0.0714,0,0,0,0,0,0.0177,0.0176,0.0147,0.0132,0.0027,-0.0032,-0.0051,-0.0149,-0.0193,-0.0214,-0.0313,-0.0383,-0.0589,-0.0577,-0.0603,-0.0629,-0.0819,-0.082,-0.082,-0.0728,-0.0721,-0.0715,0,0,0,0,0,0,0.0229,0.0158,0.0123,0.0098,0.0037,-0.006,-0.0092,-0.0147,-0.024,-0.0266,-0.0381,-0.0414,-0.05,-0.0571,-0.0555,-0.0687,-0.0717,-0.0722,-0.0638,-0.0632,-0.0626,-0.0601,-0.0644,0,0,0,0,0,0.0244,0.0224,0.0149,0.0126,0.01,0.0007,-0.0034,-0.0096,-0.0182,-0.0228,-0.0327,-0.0433,-0.0514,-0.0578,-0.0658,-0.0729,-0.0763,-0.0764,-0.0758,-0.0753,-0.0749,-0.0797,-0.0795,-0.0821,-0.0821,-0.0821,0,0,0.0256,0.0215,0.02,0.0136,0.0077,0.0039,-0.0026,-0.0086,-0.0127,-0.0241,-0.0333,-0.0412,-0.0524,-0.0604,-0.0651,-0.0675,-0.0759,-0.0753,-0.0748,-0.0747,-0.0797,-0.0794,-0.0792,-0.0822,-0.0822,-0.0822,0,0,0.0275,0.0237,0.0224,0.0182,0.0106,0.0054,0.0041,-0.0056,-0.0113,-0.0192,-0.0281,-0.0358,-0.0502,-0.0575,-0.0632,-0.064,-0.0714,-0.0682,-0.0653,-0.0699,-0.0696,-0.0695,-0.0708,-0.0708,-0.0694,-0.0694,-0.0694,0,0.0286,0.0262,0.021,0.0186,0.0151,0.0067,0.0042,-0.0016,-0.0134,-0.0173,-0.0214,-0.0393,-0.0482,-0.0571,-0.0582,-0.0626,-0.0659,-0.0667,-0.0689,-0.0688,-0.0688,-0.0702,-0.0704,-0.0689,-0.069,-0.069,-0.0691,0,0.0297,0.0267,0.0257,0.0202,0.0164,0.0129,0.0055,0.0005,-0.0065,-0.013,-0.0226,-0.0331,-0.0445,-0.048,-0.0543,-0.0597,-0.062,-0.0659,-0.0697,-0.0679,-0.0695,-0.0699,-0.0683,-0.0684,-0.0686,-0.0687,0,0,0.0341,0.0276,0.0267,0.0247,0.0169,0.0141,0.0089,0.0019,-0.002,-0.012,-0.0175,-0.0299,-0.0361,-0.0427,-0.0509,-0.0551,-0.0569,-0.0611,-0.0615,-0.0607,-0.0655,-0.0607,-0.0607,-0.0623,-0.0623,-0.0624,-0.0656,0,0.0355,0.0327,0.0284,0.0251,0.0236,0.016,0.0124,0.0052,-0.0023,-0.0091,-0.0188,-0.0279,-0.0342,-0.0404,-0.0451,-0.0548,-0.058,-0.0556,-0.0689,-0.0692,-0.0639,-0.061,-0.05,-0.0515,-0.0659,-0.066,-0.0661,0,0.0383,0.0359,0.0333,0.0284,0.0268,0.0226,0.0158,0.0111,0.0011,-0.0047,-0.0141,-0.0227,-0.032,-0.0369,-0.0498,-0.0488,-0.0563,-0.0618,-0.0622,-0.0616,-0.0652,-0.0565,-0.0516,-0.0667,-0.0667,-0.0666,-0.0666,0,0.0461,0.0399,0.0381,0.036,0.0289,0.025,0.0198,0.011,0.0073,-0.0038,-0.0078,-0.0194,-0.0272,-0.037,-0.0499,-0.0513,-0.0615,-0.0653,-0.0667,-0.0664,-0.0614,-0.0605,-0.0725,-0.0725,-0.0725,-0.0725,-0.0725,0,0.0521,0.0503,0.0402,0.0396,0.0368,0.0291,0.0244,0.0185,0.0095,0.0059,-0.0067,-0.0109,-0.0283,-0.037,-0.0473,-0.0568,-0.0602,-0.0644,-0.0669,-0.0574,-0.0562,-0.0742,-0.0744,-0.0726,-0.0726,-0.0725,-0.0725,0,0.0629,0.0558,0.0544,0.045,0.0407,0.0389,0.0275,0.0254,0.015,0.01,0.0062,-0.0064,-0.0177,-0.0318,-0.0474,-0.0534,-0.063,-0.0659,-0.0515,-0.0522,-0.065,-0.0646,-0.0665,-0.0663,-0.0662,-0.0661,-0.066,0,0.0685,0.0682,0.0599,0.0576,0.0522,0.0453,0.0415,0.0297,0.0271,0.0141,0.0143,0.0001,-0.0023,-0.0207,-0.0338,-0.0464,-0.06,-0.0504,-0.0507,-0.0621,-0.0644,-0.0642,-0.0641,-0.0397,-0.0394,-0.0392,-0.039,0,0.0794,0.0754,0.0745,0.0696,0.0642,0.0602,0.0521,0.0522,0.0396,0.0367,0.0329,0.0302,0.0128,0.0055,-0.015,-0.0247,-0.0468,-0.0458,-0.063,-0.0425,-0.0371,-0.0393,-0.04,-0.0369,-0.0371,-0.0372,-0.0374,-0.0374,0.0865,0.0888,0.0846,0.0815,0.0764,0.0743,0.0741,0.0696,0.0694,0.0696,0.0615,0.0616,0.0436,0.0289,0.0039,-0.0264,-0.0259,-0.0362,-0.0369,-0.0379,-0.0338,-0.0284,-0.0256,-0.0258,-0.0259,-0.026,-0.0261,0,0.0932,0.0933,0.0943,0.0907,0.0913,0.0811,0.0805,0.0834,0.0878,0.0954,0.0986,0.087,0.078,0.0441,0.009,-0.0103,-0.014,-0.0257,-0.0255,-0.0269,-0.0284,-0.0241,-0.0133,-0.0134,-0.0136,-0.0137,0,0,0.0951,0.0991,0.1006,0.1032,0.0986,0.0944,0.0949,0.1037,0.1109,0.1207,0.1229,0.1384,0.0957,0.0725,0.0406,0.011,-0.0036,0.0058,0.0006,0.0043,0.0029,-0.0268,-0.0207,0,0,0,0,0]}],[{"header":{"parameterUnit":"m.s-1","parameterCategory":2,"la1":30.2991,"la2":30.254,"lo1":-89.0895,"lo2":-89.0444,"dy":0.0017,"dx":0.0017,"nx":28,"ny":28,"refTime":"2024-03-24T21:00:00:Z","depth":"4","parameterNumber":2,"parameterNumberName":"U-component_of_CURRENTS"},"data":[0,0,0,0,0,0,0,0,0,0,0,0,0,0,0,0,0,0,0,0,0,0,0,0,0,0,0,0,0,0,0,0,0,0,0,0,0,0,0,0,0,0,0,0,0,0,0,0,0,0,0,0,0,0,0,0,0,0,0.0443,0.0443,0,0.0506,0.0507,0.0507,0.0557,0.0557,0.0557,0.0558,0.0684,0.0686,0.0689,0,0,0,0,0,0,0,0,0,0,0,0,0,0.0365,0.0367,0.0443,0.0443,0.0444,0.0506,0.0507,0.0508,0.0557,0.0557,0.0557,0.0558,0.0683,0.0686,0.069,0,0,0,0,0,0,0,0,0,0,0,0,0,0.0412,0.0367,0.0442,0.0475,0.0479,0.0506,0.0507,0.0508,0.0556,0.0557,0.0558,0.0558,0.0681,0.0686,0.069,0.0706,0,0,0.0704,0.0706,0,0,0,0,0,0,0,0,0.0409,0.0414,0.047,0.0473,0.0477,0.0523,0.0526,0.0577,0.0556,0.0528,0.0558,0.0558,0.0635,0.0643,0.0654,0.0712,0.0717,0.0704,0.0707,0.0709,0.071,0,0,0,0,0,0,0,0.0406,0.0412,0.0469,0.047,0.0475,0.0487,0.0494,0.0535,0.0579,0.053,0.0534,0.0539,0.0637,0.0649,0.0658,0.0719,0.0704,0.0708,0.0711,0.0713,0.0893,0.0895,0,0,0,0,0,0,0.0395,0.0409,0.0467,0.047,0.0443,0.0488,0.0496,0.0508,0.0577,0.0588,0.0539,0.0541,0.0642,0.0652,0.0662,0.0762,0.0709,0.0713,0.0716,0.0891,0.0894,0.0896,0,0,0,0,0,0,0.0394,0.04,0.0464,0.044,0.0449,0.0488,0.0502,0.0509,0.0533,0.0583,0.0595,0.0556,0.0642,0.0656,0.0714,0.0765,0.0715,0.0719,0.0889,0.0892,0.0895,0.0913,0,0,0,0,0,0,0.0391,0.0399,0.0408,0.0439,0.045,0.0487,0.0502,0.051,0.0534,0.0538,0.0601,0.0613,0.0644,0.0707,0.0719,0.077,0.0723,0.0886,0.089,0.0894,0.091,0.0917,0.0923,0,0,0,0,0,0.0388,0.0396,0.0408,0.0415,0.0459,0.0487,0.0494,0.0524,0.0534,0.0547,0.0593,0.0611,0.0742,0.0712,0.0725,0.0779,0.0884,0.0889,0.0894,0.0907,0.0915,0.0922,0,0,0,0,0,0,0.0372,0.0403,0.0416,0.0435,0.0462,0.0496,0.0508,0.0527,0.0571,0.0581,0.0625,0.0641,0.0716,0.0741,0.0707,0.0845,0.0822,0.0829,0.0828,0.0836,0.0842,0.0835,0.0726,0,0,0,0,0,0.037,0.0383,0.0416,0.0432,0.0444,0.0476,0.0492,0.0515,0.0554,0.0573,0.0621,0.068,0.0744,0.0781,0.0833,0.0897,0.0905,0.0946,0.0952,0.0957,0.0963,0.101,0.102,0.0912,0.0912,0.0912,0,0,0.0371,0.0386,0.0398,0.0429,0.0451,0.048,0.0488,0.0516,0.0554,0.0581,0.0651,0.0699,0.0764,0.0843,0.0881,0.0872,0.0991,0.0963,0.0967,0.097,0.1016,0.1026,0.1035,0.0915,0.0914,0.0914,0,0,0.0374,0.0391,0.0404,0.0426,0.0457,0.0482,0.0491,0.0536,0.057,0.0639,0.0675,0.0744,0.0839,0.0894,0.0936,0.1006,0.1018,0.1036,0.1069,0.1115,0.1123,0.1131,0.114,0.1148,0.1044,0.1044,0.1045,0,0.0377,0.0395,0.0413,0.0431,0.0452,0.0484,0.051,0.0552,0.0616,0.0658,0.067,0.0821,0.0869,0.0969,0.1003,0.1021,0.1034,0.103,0.112,0.1128,0.1136,0.1143,0.1152,0.1046,0.1046,0.1046,0.1045,0,0.0389,0.0409,0.0417,0.0455,0.0481,0.0505,0.0559,0.0599,0.065,0.0711,0.0818,0.0881,0.0977,0.101,0.1035,0.1125,0.1111,0.1114,0.1092,0.1147,0.1152,0.1161,0.1048,0.1047,0.1047,0.1047,0,0,0.039,0.042,0.0427,0.0446,0.0494,0.052,0.0579,0.0654,0.0713,0.0797,0.0877,0.0997,0.1041,0.1089,0.1126,0.1169,0.1231,0.117,0.1172,0.1163,0.1311,0.1192,0.1189,0.125,0.1252,0.1254,0.1285,0,0.0398,0.0426,0.0445,0.0492,0.0513,0.0555,0.0616,0.0693,0.077,0.0858,0.0944,0.1045,0.1071,0.1121,0.1173,0.122,0.1259,0.122,0.1274,0.1275,0.1149,0.1198,0.1261,0.1292,0.1294,0.1296,0.1297,0,0.0409,0.0424,0.0459,0.0513,0.053,0.0574,0.0665,0.0728,0.0853,0.0916,0.1019,0.1086,0.1185,0.1183,0.1294,0.127,0.13,0.132,0.1322,0.121,0.1173,0.1233,0.1313,0.1311,0.131,0.1309,0.1308,0,0.0396,0.0439,0.0465,0.0483,0.0552,0.059,0.0646,0.076,0.0823,0.0956,0.1012,0.1138,0.1202,0.1267,0.1327,0.1323,0.1411,0.1409,0.1323,0.1314,0.1401,0.1393,0.1478,0.1478,0.1478,0.1478,0.1478,0,0.0393,0.0417,0.0467,0.0483,0.0538,0.0599,0.0685,0.0754,0.0862,0.0934,0.1051,0.1098,0.123,0.1294,0.1337,0.135,0.1428,0.1332,0.1322,0.1406,0.1399,0.1406,0.1397,0.1479,0.1479,0.1479,0.1478,0,0.0374,0.0403,0.0435,0.0503,0.0531,0.058,0.0682,0.0741,0.0853,0.0931,0.097,0.1096,0.1166,0.126,0.1354,0.1348,0.1376,0.1359,0.1424,0.1416,0.1243,0.1235,0.1268,0.1264,0.1261,0.1259,0.1256,0,0.0363,0.0376,0.0437,0.0455,0.0487,0.0563,0.0611,0.0726,0.0776,0.0901,0.092,0.1025,0.1095,0.1132,0.1236,0.1298,0.1294,0.1303,0.1293,0.1238,0.1226,0.1223,0.122,0.1251,0.125,0.125,0.1249,0,0.0334,0.0359,0.0382,0.0415,0.0459,0.0507,0.058,0.0605,0.0721,0.0817,0.0847,0.0901,0.0968,0.1048,0.1108,0.1151,0.1298,0.127,0.1277,0.1268,0.1218,0.1209,0.1209,0.1238,0.1239,0.124,0.1241,0,0.031,0.0315,0.0339,0.0369,0.0409,0.043,0.0485,0.0529,0.0591,0.072,0.0712,0.082,0.0917,0.0969,0.1017,0.1057,0.1055,0.1044,0.1063,0.1077,0.1007,0.0914,0.0836,0,0,0,0,0,0.0279,0.0273,0.0288,0.0313,0.0346,0.0369,0.0446,0.0502,0.0598,0.0586,0.0651,0.0697,0.0771,0.0835,0.0845,0.0957,0.1072,0.0967,0.107,0.1176,0.1189,0.1128,0,0,0,0,0,0,0.0254,0.0261,0.0264,0.0253,0.0255,0.0291,0.0331,0.04,0.0409,0.0506,0.0551,0.0636,0.0728,0.0742,0.0819,0.0844,0.0893,0.1042,0.104,0.1169,0.1181,0.1191,0.1133,0,0,0,0,0]},{"header":{"parameterUnit":"m.s-1","parameterCategory":2,"la1":30.2991,"la2":30.254,"lo1":-89.0895,"lo2":-89.0444,"dy":0.0017,"dx":0.0017,"nx":28,"ny":28,"refTime":"2024-03-24T21:00:00:Z","depth":"4","parameterNumber":3,"parameterNumberName":"V-component_of_CURRENTS"},"data":[0,0,0,0,0,0,0,0,0,0,0,0,0,0,0,0,0,0,0,0,0,0,0,0,0,0,0,0,0,0,0,0,0,0,0,0,0,0,0,0,0,0,0,0,0,0,0,0,0,0,0,0,0,0,0,0,0,0,0.0509,0.0509,0,0.0515,0.0515,0.0515,0.0514,0.0514,0.0513,0.0513,0.049,0.049,0.0489,0,0,0,0,0,0,0,0,0,0,0,0,0,0.0481,0.0481,0.0509,0.0509,0.0509,0.0515,0.0515,0.0515,0.0514,0.0514,0.0513,0.0513,0.0491,0.049,0.0489,0,0,0,0,0,0,0,0,0,0,0,0,0,0.049,0.0481,0.0509,0.0509,0.0509,0.0515,0.0515,0.0515,0.0514,0.0514,0.0513,0.0513,0.0491,0.049,0.0489,0.0488,0,0,0.0487,0.0487,0,0,0,0,0,0,0,0,0.049,0.0491,0.0509,0.0509,0.0509,0.0514,0.0497,0.0505,0.0514,0.0512,0.0513,0.0513,0.0496,0.0495,0.0496,0.0486,0.0485,0.0487,0.0486,0.0486,0.0486,0,0,0,0,0,0,0,0.0489,0.0491,0.0511,0.0509,0.0509,0.0504,0.0505,0.0498,0.0504,0.0512,0.0512,0.0513,0.0495,0.0497,0.0495,0.0485,0.0487,0.0486,0.0486,0.0485,0.0475,0.0475,0,0,0,0,0,0,0.049,0.049,0.0511,0.0511,0.0499,0.0505,0.0506,0.0512,0.0505,0.0504,0.0513,0.0513,0.0498,0.0496,0.0495,0.051,0.0486,0.0485,0.0485,0.0475,0.0475,0.0475,0,0,0,0,0,0,0.0489,0.0492,0.0511,0.0501,0.0503,0.0505,0.0512,0.0512,0.052,0.0506,0.0504,0.0521,0.0498,0.0496,0.0501,0.0508,0.0485,0.0484,0.0475,0.0475,0.0475,0.0528,0,0,0,0,0,0,0.0489,0.0492,0.0502,0.0501,0.0503,0.0521,0.0512,0.0513,0.052,0.052,0.0512,0.0509,0.0498,0.0502,0.05,0.0506,0.0484,0.0474,0.0475,0.0475,0.0526,0.053,0.0534,0,0,0,0,0,0.0488,0.0503,0.0503,0.0505,0.0516,0.0522,0.0523,0.0523,0.0521,0.0528,0.0526,0.051,0.0502,0.0502,0.0499,0.0506,0.0474,0.0475,0.0475,0.0525,0.0529,0.0534,0,0,0,0,0,0,0.0498,0.0504,0.0504,0.0521,0.0524,0.0522,0.0532,0.0529,0.0533,0.0536,0.0519,0.0517,0.0522,0.0506,0.0506,0.0502,0.0482,0.0482,0.0521,0.0525,0.0529,0.0536,0.0483,0,0,0,0,0,0.0505,0.0519,0.0518,0.0534,0.0536,0.0535,0.0539,0.0539,0.054,0.0542,0.0535,0.0526,0.052,0.0518,0.051,0.0512,0.0484,0.0511,0.0515,0.0518,0.0521,0.0483,0.0483,0.0477,0.0477,0.0477,0,0,0.0517,0.0519,0.053,0.0537,0.054,0.0551,0.0537,0.0549,0.0559,0.0538,0.0553,0.0543,0.0524,0.0529,0.0528,0.0518,0.0506,0.0519,0.0522,0.0523,0.0483,0.0484,0.0484,0.0477,0.0477,0.0477,0,0,0.0543,0.0547,0.0566,0.0569,0.0574,0.057,0.0575,0.0577,0.058,0.0596,0.0578,0.0574,0.0572,0.0556,0.0549,0.0567,0.0529,0.056,0.0585,0.0548,0.0548,0.0548,0.0517,0.0514,0.056,0.056,0.056,0,0.056,0.0578,0.0573,0.0587,0.0592,0.058,0.0598,0.06,0.0604,0.061,0.061,0.0597,0.0586,0.0576,0.0586,0.0576,0.0549,0.0573,0.0553,0.0552,0.0551,0.052,0.0515,0.0563,0.0562,0.0562,0.0562,0,0.0594,0.061,0.0621,0.0633,0.0637,0.065,0.0647,0.065,0.0654,0.0661,0.0663,0.0644,0.0635,0.0627,0.0619,0.0602,0.0583,0.0565,0.0544,0.0555,0.0521,0.0516,0.0566,0.0565,0.0565,0.0564,0,0,0.0631,0.0644,0.065,0.066,0.0661,0.0669,0.0678,0.0687,0.0698,0.07,0.0705,0.0702,0.0691,0.068,0.0652,0.0623,0.06,0.0598,0.0594,0.0572,0.052,0.0492,0.0483,0.0576,0.0575,0.0574,0.0501,0,0.0661,0.0694,0.069,0.072,0.0734,0.0719,0.0733,0.0739,0.0739,0.074,0.0717,0.0722,0.071,0.0704,0.0673,0.0616,0.0587,0.0622,0.0508,0.0505,0.0483,0.0477,0.0572,0.0497,0.0495,0.0495,0.0494,0,0.0695,0.0711,0.0748,0.0761,0.0768,0.0789,0.0793,0.0806,0.0799,0.0799,0.0785,0.0764,0.0731,0.0712,0.0626,0.0648,0.0595,0.0548,0.0543,0.0495,0.0467,0.048,0.0483,0.0484,0.0485,0.0486,0.0486,0,0.0717,0.0748,0.0778,0.0785,0.0803,0.0821,0.0835,0.0839,0.0851,0.0835,0.0836,0.0789,0.077,0.0692,0.0614,0.0616,0.0505,0.0492,0.0416,0.0413,0.0437,0.0438,0.0428,0.0428,0.0428,0.0428,0.0428,0,0.0737,0.0763,0.08,0.0817,0.086,0.0866,0.0906,0.0902,0.0905,0.092,0.0879,0.0857,0.0766,0.0693,0.0611,0.0499,0.0504,0.0418,0.039,0.0462,0.0466,0.0433,0.0435,0.0425,0.0426,0.0427,0.0427,0,0.0742,0.077,0.0808,0.0851,0.0872,0.0907,0.0954,0.0972,0.0978,0.0979,0.0977,0.0913,0.0823,0.0718,0.0586,0.0505,0.0391,0.035,0.044,0.0419,0.0324,0.0329,0.0252,0.025,0.0249,0.0248,0.0247,0,0.0738,0.0763,0.0834,0.0864,0.089,0.0946,0.098,0.1007,0.1016,0.1007,0.0995,0.0928,0.0871,0.0662,0.0554,0.0383,0.0361,0.0294,0.0306,0.0324,0.0304,0.0312,0.0319,0.0245,0.0244,0.0244,0.0244,0,0.0721,0.0762,0.0794,0.0866,0.0919,0.097,0.1017,0.1024,0.1044,0.1057,0.0996,0.0899,0.0794,0.0648,0.0521,0.0398,0.0327,0.0279,0.0281,0.0292,0.0314,0.0298,0.0306,0.0239,0.0239,0.024,0.024,0,0.0705,0.0731,0.0789,0.0848,0.0916,0.0964,0.0996,0.1004,0.1021,0.1008,0.0988,0.0888,0.0841,0.0655,0.0532,0.0412,0.038,0.0324,0.0324,0.0328,0.0371,0.0411,0.0338,0,0,0,0,0,0.0674,0.0708,0.076,0.0833,0.0902,0.0953,0.0999,0.1021,0.1045,0.1,0.0995,0.0896,0.0719,0.0645,0.052,0.0501,0.0357,0.0347,0.0291,0.0212,0.0218,0.0253,0,0,0,0,0,0,0.0654,0.0703,0.0744,0.0807,0.0862,0.094,0.0977,0.0996,0.0964,0.0971,0.088,0.0856,0.0688,0.0804,0.0521,0.0487,0.0427,0.0279,0.0276,0.0209,0.0214,0.0218,0.0256,0,0,0,0,0]}]]